STARLINK-32156, 60278

Orbit data source: Space-Track

STARLINK-32156, 60278 is a payload satellite owned by SpaceX/Seattle (US) in LEO that was launched on Sun, 28 Jul 2024 UTC via an FALCON 9 launch vehicle from the Air Force Eastern Test Range (AFETR). Payload-class satellites include a variety of spacecraft equipped with specific instruments for various scientific and technological missions. These include communications satellites like Starlink; space stations such as the ISS; scientific satellites like the Hubble; Earth observation satellites from companies like Planet Labs, Umbra, and HawkEye 360; GPS; miniature CubeSats for education and research; and military/defense satellites.

Loading next visibility...
Identifier
60278, 2024-132A
Orbit
LEO
Country
Flag of USUS
Related business
Manufacturer
SpaceX/Seattle
Mission
Operational Commercial Communications
Bus & Motor
STARLINK V2M, Unknown motor
Mass
730 kg wet, ~700 kg dry
Launch date (UTC)
2024-07-28 (2 years ago)
Launch vehicle
FALCON 9
Launch site
Air Force Eastern Test Range (AFETR)
Object type
Payload
Rocket body
Debris
Shape & HBR
Box + 2 Pan, 17.7 m
Radar Cross Section
33.884 m², Large (>1 m²)

Expand to show TLE details & history
Last TLE update: 12 hours ago

TLE from 12 hours ago
0 STARLINK-32156
1 60278U 24132A   26120.17084790  .00000000  00000-0  12108-4 0  9998
2 60278  53.1597 173.2172 0001029  84.5553 275.5565 15.30195870100667
Epoch: 2026-04-30T04:06Z
TLE epoch observation values (Epoch: 2026-04-30T04:06:01.258Z)
Latitude
-0.00004°
Longitude
-106.40936°
Altitude
476.059 km
Speed
7.629 km/s
True Right ascension
11h 32m 52s
True Declination
0° 00' 00"
Sunlit
Object was in full shadow at epoch
Visualization orbit readout
Latitude
Unknown
Longitude
Unknown
Altitude
Unknown
Speed
Unknown
Apparent Right ascension
Unknown
Apparent Declination
Unknown
Sunlit
N/A
Visualization observer readout
Local Sidereal Time
23:58:53
Azimuth
Unknown
Elevation
Unknown
Doppler factor
Unknown
Orbital elements
Apogee altitude
476.189 km
Perigee altitude
474.779 km
Semi-major axis
6,853.621 km
Eccentricity
0.0001
Inclination
53.1597°
RAAN
173.2172°
Arg. of periapsis
84.5553°
True anomaly
275.54476°
Mean anomaly
275.5565°
Eccentric anomaly
275.55063°
Mean motion
3.82528 °/min
Orbital period
94.11 mins
BSTAR
0.000012108
Loading maneuver chart data...
Computing Atmospheric mass density...
Loading historical data...
Loading historical data...
Loading historical data...
Loading historical data...
Loading historical data...
Loading historical data...
Loading historical data...

Documentation

Showing up to 5 results
|